| time (UTC) | temp C | wind direction | speed KPH | gust KPH | rain 1hr cm | rain 24hr cm | rain mn cm | humidity % | barometer mb |
| 20260506180006 | 27 | 159 | 0.0 | 9.7 | 0.00 | 0.00 | 0.00 | 76 | 1009.1 |
| 20260506174508 | 26 | 146 | 0.0 | 6.4 | 0.00 | 0.00 | 0.00 | 78 | 1009.2 |
| 20260506173012 | 26 | 4 | 1.6 | 9.7 | 0.00 | 0.00 | 0.00 | 79 | 1009.4 |
| 20260506171507 | 25 | 113 | 0.0 | 6.4 | 0.00 | 0.00 | 0.00 | 81 | 1009.4 |
| 20260506170008 | 25 | 9 | 1.6 | 4.8 | 0.00 | 0.00 | 0.00 | 82 | 1009.6 |
| 20260506164603 | 25 | 22 | 0.0 | 8.0 | 0.00 | 0.00 | 0.00 | 83 | 1009.6 |
| 20260506163003 | 25 | 35 | 1.6 | 9.7 | 0.00 | 0.00 | 0.00 | 84 | 1009.6 |
| 20260506161612 | 24 | 22 | 0.0 | 6.4 | 0.00 | 0.00 | 0.00 | 85 | 1009.7 |
| 20260506160008 | 24 | 17 | 1.6 | 4.8 | 0.00 | 0.00 | 0.00 | 85 | 1009.6 |
| 20260506154503 | 24 | 25 | 0.0 | 3.2 | 0.00 | 0.00 | 0.00 | 86 | 1009.3 |
| 20260506153104 | 23 | 357 | 0.0 | 3.2 | 0.00 | 0.00 | 0.00 | 87 | 1009.1 |
| 20260506151505 | 23 | 27 | 0.0 | 1.6 | 0.00 | 0.00 | 0.00 | 87 | 1008.8 |
| 20260506150008 | 23 | 18 | 0.0 | 0.0 | 0.00 | 0.00 | 0.00 | 86 | 1008.7 |
| 20260506144516 | 23 | 7 | 0.0 | 1.6 | 0.00 | 0.00 | 0.00 | 85 | 1008.8 |
| 20260506143004 | 23 | 137 | 0.0 | 1.6 | 0.00 | 0.00 | 0.00 | 85 | 1008.6 |
| 20260506141504 | 23 | 183 | 0.0 | 0.0 | 0.00 | 0.00 | 0.00 | 86 | 1008.2 |
| 20260506140003 | 23 | 209 | 0.0 | 3.2 | 0.00 | 0.00 | 0.00 | 86 | 1008.0 |
| 20260506134502 | 23 | 168 | 0.0 | 1.6 | 0.00 | 0.00 | 0.00 | 86 | 1007.6 |
| 20260506133001 | 23 | 207 | 0.0 | 3.2 | 0.00 | 0.00 | 0.00 | 86 | 1007.4 |
| 20260506131602 | 23 | 214 | 1.6 | 6.4 | 0.00 | 0.00 | 0.00 | 86 | 1007.3 |
| 20260506130005 | 23 | 99 | 0.0 | 3.2 | 0.00 | 0.00 | 0.00 | 87 | 1007.2 |
| 20260506124505 | 23 | 240 | 0.0 | 0.0 | 0.00 | 0.00 | 0.00 | 87 | 1007.3 |
| 20260506123002 | 23 | 224 | 0.0 | 1.6 | 0.00 | 0.00 | 0.00 | 87 | 1007.3 |
| 20260506121604 | 23 | 186 | 0.0 | 0.0 | 0.00 | 0.00 | 0.00 | 86 | 1007.3 |
| 20260506120103 | 23 | 201 | 0.0 | 1.6 | 0.00 | 0.00 | 0.00 | 86 | 1007.1 |
| 20260506114550 | 23 | 229 | 0.0 | 3.2 | 0.00 | 0.00 | 0.00 | 86 | 1007.1 |
| 20260506113052 | 23 | 229 | 0.0 | 3.2 | 0.00 | 0.00 | 0.00 | 86 | 1007.1 |
| 20260506111547 | 23 | 225 | 0.0 | 3.2 | 0.00 | 0.00 | 0.00 | 86 | 1007.1 |
| 20260506110048 | 23 | 225 | 0.0 | 1.6 | 0.00 | 0.00 | 0.00 | 86 | 1007.2 |
| 20260506104556 | 23 | 197 | 0.0 | 3.2 | 0.00 | 0.00 | 0.00 | 86 | 1007.0 |
| 20260506103105 | 23 | 193 | 0.0 | 1.6 | 0.00 | 0.00 | 0.00 | 86 | 1007.0 |
| 20260506101557 | 23 | 212 | 0.0 | 3.2 | 0.00 | 0.00 | 0.00 | 85 | 1007.0 |
| 20260506100108 | 23 | 199 | 0.0 | 4.8 | 0.00 | 0.00 | 0.00 | 85 | 1006.9 |
| 20260506094605 | 23 | 210 | 0.0 | 4.8 | 0.00 | 0.00 | 0.00 | 85 | 1006.8 |
| 20260506093057 | 23 | 120 | 1.6 | 6.4 | 0.00 | 0.00 | 0.00 | 85 | 1006.7 |
| 20260506091505 | 23 | 143 | 0.0 | 4.8 | 0.00 | 0.00 | 0.00 | 85 | 1006.7 |
| 20260506090039 | 23 | 189 | 0.0 | 0.0 | 0.00 | 0.00 | 0.00 | 85 | 1006.8 |
| 20260506084551 | 23 | 176 | 0.0 | 6.4 | 0.00 | 0.00 | 0.00 | 85 | 1006.8 |
| 20260506083053 | 23 | 173 | 0.0 | 4.8 | 0.00 | 0.00 | 0.00 | 85 | 1006.8 |
| 20260506081550 | 23 | 211 | 0.0 | 4.8 | 0.00 | 0.00 | 0.00 | 84 | 1006.7 |
| 20260506073003 | 23 | 135 | 1.6 | 8.0 | 0.00 | 0.00 | 0.00 | 84 | 1007.2 |
| 20260506071501 | 23 | 352 | 0.0 | 12.9 | 0.00 | 0.00 | 0.00 | 84 | 1007.3 |
| 20260506061602 | 24 | 141 | 1.6 | 16.1 | 0.00 | 0.00 | 0.00 | 84 | 1007.4 |
| 20260506044555 | 24 | 210 | 1.6 | 9.7 | 0.00 | 0.00 | 0.00 | 84 | 1007.4 |
| 20260506043057 | 24 | 315 | 1.6 | 6.4 | 0.00 | 0.00 | 0.00 | 84 | 1007.4 |
| 20260506041553 | 24 | 229 | 0.0 | 3.2 | 0.00 | 0.00 | 0.00 | 84 | 1007.3 |
| 20260506040003 | 24 | 114 | 0.0 | 3.2 | 0.00 | 0.00 | 0.00 | 83 | 1007.1 |
| 20260506034511 | 25 | 131 | 0.0 | 8.0 | 0.00 | 0.00 | 0.00 | 83 | 1007.0 |
| 20260506033010 | 25 | 219 | 1.6 | 11.3 | 0.00 | 0.00 | 0.00 | 83 | 1006.6 |
| 20260506031516 | 25 | 193 | 0.0 | 9.7 | 0.00 | 0.00 | 0.00 | 82 | 1006.5 |
| 20260506030008 | 25 | 207 | 0.0 | 6.4 | 0.00 | 0.00 | 0.00 | 81 | 1006.2 |
| 20260506024509 | 25 | 170 | 0.0 | 12.9 | 0.00 | 0.00 | 0.00 | 80 | 1005.9 |
| 20260506023006 | 26 | 245 | 1.6 | 11.3 | 0.00 | 0.00 | 0.00 | 79 | 1005.8 |
| 20260506021505 | 26 | 134 | 0.0 | 6.4 | 0.00 | 0.00 | 0.00 | 78 | 1005.8 |
| 20260506020004 | 27 | 92 | 1.6 | 6.4 | 0.00 | 0.00 | 0.00 | 77 | 1005.5 |
| 20260506014504 | 27 | 135 | 0.0 | 4.8 | 0.00 | 0.00 | 0.00 | 75 | 1005.2 |
| 20260506013003 | 27 | 104 | 0.0 | 1.6 | 0.00 | 0.00 | 0.00 | 74 | 1005.0 |
| 20260506011510 | 27 | 95 | 0.0 | 1.6 | 0.00 | 0.00 | 0.00 | 73 | 1004.8 |
| 20260506010013 | 27 | 221 | 0.0 | 1.6 | 0.00 | 0.00 | 0.00 | 72 | 1004.6 |
| 20260506004506 | 28 | 226 | 0.0 | 3.2 | 0.00 | 0.00 | 0.00 | 72 | 1004.5 |
| 20260506003004 | 28 | 156 | 0.0 | 4.8 | 0.00 | 0.00 | 0.00 | 71 | 1004.4 |
| 20260506001502 | 28 | 224 | 0.0 | 4.8 | 0.00 | 0.00 | 0.00 | 71 | 1004.4 |
| 20260505234528 | 29 | 208 | 0.0 | 6.4 | 0.00 | 0.00 | 0.00 | 69 | 1004.1 |
| 20260505233046 | 29 | 146 | 0.0 | 1.6 | 0.00 | 0.00 | 0.00 | 69 | 1004.0 |
| 20260505231550 | 29 | 115 | 1.6 | 6.4 | 0.00 | 0.00 | 0.00 | 68 | 1004.0 |
| 20260505230055 | 30 | 176 | 0.0 | 4.8 | 0.00 | 0.00 | 0.00 | 68 | 1003.9 |
| 20260505224547 | 30 | 77 | 1.6 | 8.0 | 0.00 | 0.00 | 0.00 | 67 | 1004.0 |
| 20260505223048 | 29 | 223 | 3.2 | 8.0 | 0.00 | 0.00 | 0.00 | 67 | 1004.1 |
| 20260505221546 | 29 | 207 | 1.6 | 8.0 | 0.00 | 0.00 | 0.00 | 66 | 1004.2 |
| 20260505220044 | 30 | 213 | 1.6 | 6.4 | 0.00 | 0.00 | 0.00 | 65 | 1004.4 |
| 20260505214549 | 30 | 165 | 0.0 | 6.4 | 0.00 | 0.00 | 0.00 | 66 | 1004.5 |
| 20260505213042 | 29 | 195 | 3.2 | 9.7 | 0.00 | 0.00 | 0.00 | 65 | 1004.7 |
| 20260505211539 | 29 | 233 | 0.0 | 8.0 | 0.00 | 0.00 | 0.00 | 67 | 1005.0 |
| 20260505210047 | 30 | 224 | 0.0 | 11.3 | 0.00 | 0.00 | 0.00 | 66 | 1005.2 |
| 20260505204502 | 29 | 112 | 0.0 | 8.0 | 0.00 | 0.00 | 0.00 | 68 | 1005.5 |
| 20260505203002 | 29 | 207 | 1.6 | 9.7 | 0.00 | 0.00 | 0.00 | 67 | 1005.8 |
| 20260505201502 | 29 | 167 | 1.6 | 9.7 | 0.00 | 0.00 | 0.00 | 67 | 1005.9 |
| 20260505200058 | 30 | 143 | 0.0 | 8.0 | 0.00 | 0.00 | 0.00 | 67 | 1006.0 |
| 20260505194555 | 29 | 134 | 1.6 | 9.7 | 0.00 | 0.00 | 0.00 | 69 | 1006.2 |
| 20260505193054 | 28 | 171 | 0.0 | 8.0 | 0.00 | 0.00 | 0.00 | 69 | 1006.4 |
| 20260505191603 | 27 | 210 | 3.2 | 6.4 | 0.00 | 0.00 | 0.00 | 70 | 1006.6 |
| 20260505190004 | 27 | 236 | 0.0 | 6.4 | 0.00 | 0.00 | 0.00 | 72 | 1007.0 |
| 20260505184502 | 27 | 170 | 0.0 | 4.8 | 0.00 | 0.00 | 0.00 | 73 | 1007.1 |
| 20260505183141 | 26 | 219 | 0.0 | 4.8 | 0.00 | 0.00 | 0.00 | 73 | 1007.3 |
| 20260505181601 | 26 | 143 | 1.6 | 6.4 | 0.00 | 0.00 | 0.00 | 73 | 1007.4 |